Location: B�rgermoos
(47.6500°N, 9.0667°E)
Time: 02:16:23
(UTC+00:00)

Courier 1B - Pass Details

Date: 02 August 2021
Orbit: 963 x 1209 km, 28.3° (Epoch: 19 September)

Event Time Altitude Azimuth Distance (km) Brightness Sun altitude
Rises 21:34:27 0° 246° (WSW) 4,079 10.8 -19.9°
Reaches altitude 10° 21:39:21 10° 220° (SW) 3,076 9.9 -20.3°
Enters shadow 21:41:09 12° 206° (SSW) 2,892 9.6 -20.4°
